time_stamp(utc),avg(mph),gust(mph),direction(deg),12m_air_temp(f),sonic_u(cm/s),sonic_v(cm/s),sonic_w(cm/s),pressure,2m_air_temp(f),pyranometer(W/m^2)
"2021-04-06 00:02:39+00",9.6,11.6,,59.3,-351,224,-40,1012.28,56.1,0
"2021-04-06 00:07:39+00",11.3,13.3,,60,-391,310,-43,1012.37,55.8,0
"2021-04-06 00:12:39+00",10.1,11.1,,59.9,-321,293,-35,1012.5,56,0
"2021-04-06 00:17:39+00",11.0,11.0,,61.6,-345,319,-41,1012.65,55.9,0
"2021-04-06 00:22:39+00",11.3,11.3,,62.1,-365,326,-36,1012.61,55.6,0
"2021-04-06 00:27:39+00",11.1,11.1,,62.1,-375,319,-19,1012.75,55.5,0
"2021-04-06 00:32:39+00",11.8,11.8,,62,-434,299,-24,1012.75,55.4,0
"2021-04-06 00:37:39+00",11.6,12.6,,61.8,-443,270,-41,1012.75,55.4,0
"2021-04-06 00:42:39+00",11.4,11.4,,61.7,-438,254,-43,1012.82,55.3,0
"2021-04-06 00:47:39+00",12.0,13.0,,61.8,-478,249,-47,1012.98,55,0
"2021-04-06 00:52:39+00",13.1,13.1,,61.6,-538,245,-33,1012.97,54.7,0
"2021-04-06 00:57:39+00",13.1,13.1,,60.8,-559,193,-31,1012.98,54.6,0
"2021-04-06 01:02:39+00",13.9,14.9,,59.9,-595,199,-28,1013.01,54.5,0
"2021-04-06 01:07:39+00",13.6,14.6,,59.7,-581,220,-22,1013.11,54.6,0
"2021-04-06 01:12:39+00",12.8,13.8,,59.1,-520,232,-21,1013.07,54.7,0
"2021-04-06 01:17:39+00",12.9,14.9,,58.6,-516,286,-16,1013.12,54.7,0
"2021-04-06 01:22:39+00",12.4,13.4,,58.4,-454,316,-37,1013.26,54.8,0
"2021-04-06 01:27:39+00",12.8,13.8,,58,-458,340,-24,1013.32,54.8,0
"2021-04-06 01:32:39+00",12.9,13.9,,57.6,-442,363,-9,1013.4,54.6,0
"2021-04-06 01:37:39+00",13.1,14.1,,58.2,-449,384,-7,1013.38,54.7,0
"2021-04-06 01:42:39+00",14.3,16.3,,58.4,-468,462,-1,1013.48,55,0
"2021-04-06 01:47:39+00",13.5,14.5,,58.3,-377,491,-16,1013.42,55.4,0
"2021-04-06 01:52:39+00",14.0,15.0,,58.3,-364,509,-7,1013.48,55.5,0
"2021-04-06 01:57:39+00",14.0,15.0,,58.7,-378,512,-11,1013.42,55.7,0
"2021-04-06 02:02:39+00",13.8,15.8,,58.8,-344,506,-2,1013.32,56,0
"2021-04-06 02:07:39+00",14.8,15.8,,59,-353,561,0,1013.31,56.3,0
"2021-04-06 02:12:39+00",13.3,16.3,,59,-255,520,-27,1013.34,56.6,0
"2021-04-06 02:17:39+00",12.7,14.7,,59,-243,499,-30,1013.41,56.7,0
"2021-04-06 02:22:39+00",13.7,14.7,,59.3,-345,495,-9,1013.49,56.8,0
"2021-04-06 02:27:39+00",12.9,14.9,,59.4,-329,450,-29,1013.43,56.8,0
"2021-04-06 02:32:39+00",13.2,15.2,,59.7,-340,495,-4,1013.43,57.1,0
"2021-04-06 02:37:39+00",13.9,15.9,,59.9,-357,513,-14,1013.39,57.3,0
"2021-04-06 02:42:39+00",13.8,15.8,,59.9,-376,499,-12,1013.49,57.6,0
"2021-04-06 02:47:39+00",14.7,17.7,,60.3,-347,575,-3,1013.49,57.8,0
"2021-04-06 02:52:39+00",14.9,16.9,,60.3,-345,585,1,1013.5,58,0
"2021-04-06 02:57:39+00",13.1,14.1,,60.1,-330,489,11,1013.52,58,0
"2021-04-06 03:02:39+00",14.7,16.7,,60.1,-366,557,-2,1013.62,58,0
"2021-04-06 03:07:39+00",13.1,15.1,,60,-325,501,-4,1013.65,58,0
"2021-04-06 03:12:39+00",12.8,13.8,,59.9,-303,480,2,1013.71,57.9,0
"2021-04-06 03:17:39+00",12.3,14.3,,59.7,-283,467,-7,1013.71,57.7,0
"2021-04-06 03:22:39+00",11.0,12.0,,59.5,-234,414,-26,1013.77,57.5,0
"2021-04-06 03:27:39+00",10.6,12.6,,59.2,-234,410,-20,1013.79,57.2,0
"2021-04-06 03:32:39+00",9.7,10.7,,59.1,-232,351,-21,1013.82,56.9,0
"2021-04-06 03:37:39+00",9.7,10.7,,58.6,-269,324,-28,1013.89,56.4,0
"2021-04-06 03:42:39+00",10.3,12.3,,58.5,-284,353,-30,1013.91,56,0
"2021-04-06 03:47:39+00",12.1,13.1,,58.6,-314,435,-25,1013.86,55.9,0
"2021-04-06 03:52:39+00",14.9,16.9,,58.9,-358,585,-19,1013.82,56.2,0
"2021-04-06 03:57:39+00",15.0,17.0,,58.7,-308,595,18,1013.83,56.5,0
"2021-04-06 04:02:39+00",14.6,16.6,,58.5,-293,572,-4,1013.82,56.5,0
"2021-04-06 04:07:39+00",13.6,15.6,,58.2,-252,563,-4,1013.96,56.4,0
"2021-04-06 04:12:39+00",12.4,15.4,,58,-224,509,-7,1014.03,56,0
"2021-04-06 04:17:39+00",12.1,15.1,,57.7,-236,482,0,1014.08,55.8,0
"2021-04-06 04:22:39+00",14.5,17.5,,57.9,-241,613,-15,1014.03,55.7,0
"2021-04-06 04:27:39+00",14.4,17.4,,57.7,-218,596,-32,1014,55.6,0
"2021-04-06 04:32:39+00",15.4,18.4,,57.6,-218,654,-23,1014.08,55.6,0
"2021-04-06 04:37:39+00",15.9,18.9,,57.5,-155,711,-41,1013.98,55.3,0
"2021-04-06 04:42:39+00",15.9,19.9,,57.2,-121,722,-57,1014.01,55.1,0
"2021-04-06 04:47:39+00",13.6,15.6,,56.8,-92,599,-53,1013.96,54.9,0
"2021-04-06 04:52:39+00",13.8,15.8,,56.4,-89,612,-54,1014,54.5,0
"2021-04-06 04:57:39+00",13.0,15.0,,56,-80,566,-49,1014.14,54.1,0
"2021-04-06 05:02:39+00",11.9,13.9,,55.8,-60,518,-55,1014.24,53.7,0
"2021-04-06 05:07:39+00",11.3,13.3,,55.5,-67,493,-49,1014.27,53.4,0
"2021-04-06 05:12:39+00",13.6,17.6,,55.6,-29,612,-54,1014.33,53.2,0
"2021-04-06 05:17:39+00",13.7,15.7,,55.5,-48,618,-47,1014.3,53.1,0
"2021-04-06 05:22:39+00",13.3,16.3,,55.4,-107,595,-37,1014.37,52.9,0
"2021-04-06 05:27:39+00",12.9,14.9,,54.9,-23,575,-39,1014.25,52.8,0
"2021-04-06 05:32:39+00",12.5,14.5,,54.6,-55,561,-32,1014.2,52.5,0
"2021-04-06 05:37:39+00",11.6,13.6,,54.4,-35,510,-36,1014.3,52.3,0
"2021-04-06 05:42:39+00",14.0,18.0,,54.5,-11,611,-51,1014.32,52.1,0
"2021-04-06 05:47:39+00",12.7,15.7,,54.3,-18,572,-40,1014.28,52.1,0
"2021-04-06 05:52:39+00",15.4,18.4,,54.4,39,712,-54,1014.37,52.1,0
"2021-04-06 05:57:39+00",17.3,21.3,,54.3,16,786,-37,1014.27,52.1,0
"2021-04-06 06:02:39+00",14.1,16.1,,53.9,-23,646,-34,1014.28,52,0
"2021-04-06 06:07:39+00",12.4,14.4,,53.5,-77,561,-31,1014.47,51.7,0
"2021-04-06 06:12:39+00",10.1,12.1,,53,-66,439,-37,1014.48,51.3,0
"2021-04-06 06:17:39+00",11.6,13.6,,53,-13,508,-47,1014.55,50.9,0
"2021-04-06 06:22:39+00",12.6,15.6,,53.1,-36,570,-44,1014.42,50.8,0
"2021-04-06 06:27:39+00",12.7,14.7,,53.1,-61,566,-46,1014.4,50.7,0
"2021-04-06 06:32:39+00",13.6,15.6,,53.1,-198,564,-30,1014.42,50.9,0
"2021-04-06 06:37:39+00",12.4,14.4,,52.6,-157,540,-26,1014.39,50.9,0
"2021-04-06 06:42:39+00",12.4,13.4,,52.5,-140,533,-32,1014.42,50.7,0
"2021-04-06 06:47:39+00",13.4,15.4,,52.4,-131,600,-35,1014.43,50.4,0
"2021-04-06 06:52:39+00",12.6,13.6,,52.2,-165,540,-30,1014.51,50.3,0
"2021-04-06 06:57:39+00",10.7,11.7,,51.9,-5,469,-51,1014.38,50,0
"2021-04-06 07:02:39+00",11.3,14.3,,51.7,-60,493,-48,1014.42,49.7,0
"2021-04-06 07:07:39+00",11.4,13.4,,51.6,-161,482,-33,1014.46,49.6,0
"2021-04-06 07:12:39+00",10.8,11.8,,51.7,-157,444,-38,1014.46,49.6,0
"2021-04-06 07:17:39+00",10.4,11.4,,51.7,-121,436,-45,1014.39,49.6,0
"2021-04-06 07:22:39+00",9.4,10.4,,51.5,-154,375,-38,1014.43,49.5,0
"2021-04-06 07:27:39+00",9.9,10.9,,51.6,-249,345,-25,1014.55,49.6,0
"2021-04-06 07:32:39+00",9.5,10.5,,51.7,-275,297,-29,1014.62,49.6,0
"2021-04-06 07:37:39+00",9.0,10.0,,51.7,-257,282,-32,1014.73,49.6,0
"2021-04-06 07:42:39+00",8.5,9.5,,51.8,-211,277,-51,1014.87,49.8,0
"2021-04-06 07:47:39+00",9.5,11.5,,51.7,-217,339,-39,1014.87,49.9,0
"2021-04-06 07:52:39+00",9.9,10.9,,51.9,-168,375,-47,1014.71,50.1,0
"2021-04-06 07:57:39+00",10.4,11.4,,51.9,-271,358,-43,1014.88,50.2,0
"2021-04-06 08:02:39+00",10.4,11.4,,51.8,-306,329,-33,1014.88,50.3,0
"2021-04-06 08:07:39+00",10.2,11.2,,52,-305,334,-23,1014.93,50.3,0
"2021-04-06 08:12:39+00",9.7,10.7,,51.8,-283,308,-40,1014.83,50.4,0
"2021-04-06 08:17:39+00",8.9,9.9,,51.7,-268,274,-41,1014.91,50.2,0
"2021-04-06 08:22:39+00",6.8,8.8,,51.7,-219,186,-35,1014.87,50.1,0
"2021-04-06 08:27:39+00",6.7,7.7,,51.6,-182,207,-29,1014.89,50,0
"2021-04-06 08:32:39+00",7.9,8.9,,51.4,-278,173,-42,1015.16,49.9,0
"2021-04-06 08:37:39+00",8.5,9.5,,51.4,-311,167,-56,1015.21,49.8,0
"2021-04-06 08:42:39+00",7.4,8.4,,51.3,-303,115,-39,1015.27,49.7,0
"2021-04-06 08:47:39+00",7.3,8.3,,51.1,-300,90,-45,1015.23,49.6,0
"2021-04-06 08:52:39+00",6.8,7.8,,50.9,-272,113,-40,1015.15,49.4,0
"2021-04-06 08:57:39+00",7.8,8.8,,51,-289,150,-49,1015.16,49.1,0
"2021-04-06 09:02:39+00",6.6,7.6,,51.1,-186,186,-38,1015.08,49,0
"2021-04-06 09:07:39+00",7.4,8.4,,51,-214,202,-46,1015.13,48.9,0
"2021-04-06 09:12:39+00",7.0,7.0,,50.8,-202,186,-43,1015.23,48.6,0
"2021-04-06 09:17:39+00",6.8,7.8,,50.6,-160,217,-45,1015.21,48.3,0
"2021-04-06 09:22:39+00",7.9,9.9,,50.6,-174,277,-47,1015.25,48.2,0
"2021-04-06 09:27:39+00",8.2,9.2,,50.6,-181,276,-46,1015.32,48.3,0
"2021-04-06 09:32:39+00",7.6,8.6,,50.4,-192,240,-41,1015.37,48.4,0
"2021-04-06 09:37:39+00",7.5,7.5,,50.3,-206,221,-42,1015.33,48.3,0
"2021-04-06 09:42:39+00",7.6,8.6,,50.4,-219,231,-38,1015.35,48,0
"2021-04-06 09:47:39+00",7.2,8.2,,50.3,-218,220,-34,1015.32,47.7,0
"2021-04-06 09:52:39+00",6.6,7.6,,50.4,-221,191,11,1015.28,47.4,0
"2021-04-06 09:57:39+00",6.7,7.7,,50.2,-236,190,9,1015.4,47.1,0
"2021-04-06 10:02:39+00",7.2,8.2,,50.2,-259,189,14,1015.43,46.9,0
"2021-04-06 10:07:39+00",7.6,7.6,,50,-255,223,14,1015.41,46.5,0
"2021-04-06 10:12:39+00",7.3,7.3,,49.9,-233,219,14,1015.41,46.3,0
"2021-04-06 10:17:39+00",7.0,7.0,,49.7,-229,203,9,1015.38,46.1,0
"2021-04-06 10:22:39+00",6.6,7.6,,49.7,-213,195,8,1015.46,46,0
"2021-04-06 10:27:39+00",6.6,6.6,,49.8,-235,174,10,1015.46,45.8,0
"2021-04-06 10:32:39+00",7.3,8.3,,49.8,-257,201,11,1015.51,45.7,0
"2021-04-06 10:37:39+00",7.4,8.4,,49.6,-252,208,9,1015.5,45.6,0
"2021-04-06 10:42:39+00",7.3,7.3,,49.5,-227,226,8,1015.41,45.6,0
"2021-04-06 10:47:39+00",7.5,7.5,,49.3,-203,252,9,1015.38,45.7,0
"2021-04-06 10:52:39+00",8.7,9.7,,49.2,-198,326,12,1015.39,45.9,0
"2021-04-06 10:57:39+00",9.2,10.2,,49,-217,340,15,1015.41,45.9,0
"2021-04-06 11:02:39+00",8.7,9.7,,48.4,-220,320,16,1015.49,46,0
"2021-04-06 11:07:39+00",8.0,9.0,,48.2,-227,272,17,1015.51,46.2,0
"2021-04-06 11:12:39+00",9.0,10.0,,47.9,-335,232,20,1015.51,46.6,0
"2021-04-06 11:17:39+00",10.3,11.3,,47.7,-406,233,15,1015.61,46.9,0
"2021-04-06 11:22:39+00",10.5,11.5,,47.9,-403,256,20,1015.72,47.3,0
"2021-04-06 11:27:39+00",11.7,12.7,,48.3,-414,335,24,1015.74,47.8,0
"2021-04-06 11:32:39+00",11.6,12.6,,48.4,-417,323,26,1015.71,48.2,0
"2021-04-06 11:37:39+00",11.6,12.6,,48.3,-409,319,23,1015.75,48.6,0
"2021-04-06 11:42:39+00",11.1,12.1,,48.3,-391,329,24,1015.68,48.8,0
"2021-04-06 11:47:39+00",11.5,12.5,,48.3,-427,294,22,1015.79,49.1,0
"2021-04-06 11:52:39+00",11.8,12.8,,48.3,-449,281,31,1015.74,49.3,0
"2021-04-06 11:57:39+00",12.2,13.2,,48.4,-470,307,27,1015.7,49.5,0
"2021-04-06 12:02:39+00",10.9,11.9,,48.5,-421,259,27,1015.73,49.7,0
"2021-04-06 12:07:39+00",12.8,14.8,,48.7,-487,306,21,1015.63,50,0
"2021-04-06 12:12:39+00",12.9,14.9,,49,-489,317,24,1015.73,50.3,0
"2021-04-06 12:17:39+00",12.5,13.5,,49.3,-490,302,16,1015.65,50.6,0
"2021-04-06 12:22:39+00",11.6,13.6,,49.8,-458,256,35,1015.57,51.1,0
"2021-04-06 12:27:39+00",10.1,12.1,,50,-403,224,21,1015.58,51.6,0
"2021-04-06 12:32:39+00",10.3,12.3,,50.3,-384,280,30,1015.7,52,0
"2021-04-06 12:37:39+00",9.4,10.4,,50.8,-323,273,25,1015.66,52.4,0
"2021-04-06 12:42:39+00",10.1,13.1,,51.3,-329,311,36,1015.68,52.8,0
"2021-04-06 12:47:39+00",13.0,15.0,,51.7,-414,420,34,1015.75,53.2,0
"2021-04-06 12:52:39+00",12.8,14.8,,52.3,-383,435,54,1015.67,53.5,0
"2021-04-06 12:57:39+00",13.9,14.9,,52.4,-415,455,9,1015.66,53.9,0
"2021-04-06 13:02:39+00",14.2,16.2,,52.7,-405,484,16,1015.63,54.2,0
"2021-04-06 13:07:39+00",14.2,16.2,,53,-404,496,28,1015.58,54.5,0
"2021-04-06 13:12:39+00",14.5,16.5,,53.3,-275,588,14,1015.65,54.9,0
"2021-04-06 13:17:39+00",15.2,17.2,,53.6,-362,580,37,1015.61,55.1,0
"2021-04-06 13:22:39+00",14.3,16.3,,53.8,-245,577,9,1015.54,55.4,0
"2021-04-06 13:27:39+00",14.8,15.8,,54.2,-295,590,30,1015.43,56,0
"2021-04-06 13:32:39+00",14.7,16.7,,54.4,-307,565,43,1015.43,56.4,0
"2021-04-06 13:37:39+00",16.4,19.4,,54.9,-338,629,32,1015.42,56.8,0
"2021-04-06 13:42:39+00",17.7,20.7,,54.9,-431,697,23,1015.39,56.8,0
"2021-04-06 13:47:39+00",17.8,21.8,,55.1,-358,686,19,1015.47,56.8,0
"2021-04-06 13:52:39+00",17.9,20.9,,55.2,-515,616,24,1015.47,57.1,0
"2021-04-06 13:57:39+00",18.5,21.5,,55.4,-567,617,53,1015.49,57.1,0
"2021-04-06 14:02:39+00",15.2,16.2,,55.5,-505,463,30,1015.53,57,0
"2021-04-06 14:07:39+00",15.2,17.2,,56,-458,507,42,1015.56,57.5,0
"2021-04-06 14:12:39+00",15.7,18.7,,56,-532,465,50,1015.54,57.7,0
"2021-04-06 14:17:39+00",16.5,18.5,,55.8,-598,471,50,1015.51,57.8,0
"2021-04-06 14:22:39+00",15.8,18.8,,56.4,-430,543,60,1015.62,58,0
"2021-04-06 14:27:39+00",16.9,19.9,,56.3,-540,564,12,1015.53,58.2,0
"2021-04-06 14:32:39+00",21.6,24.6,,56.4,-765,617,45,1015.36,58.2,0
"2021-04-06 14:37:39+00",16.3,19.3,,56.9,-516,541,31,1015.43,58.4,0
"2021-04-06 14:42:39+00",20.2,22.2,,57.1,-722,566,38,1015.27,58.7,0
"2021-04-06 14:47:39+00",17.8,20.8,,56.7,-592,531,45,1015.21,58.6,0
"2021-04-06 14:52:39+00",17.3,19.3,,57.2,-535,529,42,1015.19,58.9,0
"2021-04-06 14:57:39+00",17.9,21.9,,57.7,-482,641,32,1015.1,59.4,0
"2021-04-06 15:02:39+00",18.4,20.4,,57.9,-593,579,51,1014.95,59.7,0
"2021-04-06 15:07:39+00",15.7,18.7,,57.4,-525,434,38,1014.9,59.6,0
"2021-04-06 15:12:39+00",16.7,19.7,,57.8,-594,468,32,1014.85,59.9,0
"2021-04-06 15:17:39+00",18.6,22.6,,58.4,-534,643,32,1014.84,60.2,0
"2021-04-06 15:22:39+00",16.3,20.3,,58.6,-535,498,47,1014.77,60.5,0
"2021-04-06 15:27:39+00",16.7,17.7,,58.7,-511,541,36,1014.61,60.7,0
"2021-04-06 15:32:39+00",16.1,20.1,,59.5,-446,576,66,1014.59,61.1,0
"2021-04-06 15:37:39+00",14.8,17.8,,59.4,-164,627,8,1014.56,61.6,0
"2021-04-06 15:42:39+00",16.8,17.8,,59.4,-491,572,21,1014.43,61.9,0
"2021-04-06 15:47:39+00",19.3,27.3,,60,-240,791,32,1014.29,62,0
"2021-04-06 15:52:39+00",14.0,16.0,,59.6,-468,432,49,1014.31,62,0
"2021-04-06 15:57:39+00",13.3,16.3,,60.5,-202,552,39,1014.22,62.6,0
"2021-04-06 16:02:39+00",13.3,15.3,,60.6,-374,457,61,1014.06,62.8,0
"2021-04-06 16:07:39+00",16.4,18.4,,60.2,-566,463,62,1013.91,62.7,0
"2021-04-06 16:12:39+00",16.0,17.0,,60.8,-301,633,20,1014.01,62.9,0
"2021-04-06 16:17:39+00",15.2,17.2,,60.5,-490,473,16,1013.98,63.1,0
"2021-04-06 16:22:39+00",16.1,18.1,,60.9,-419,590,32,1013.92,63.2,0
"2021-04-06 16:27:39+00",13.0,17.0,,60.7,-457,344,63,1013.87,63.4,0
"2021-04-06 16:32:39+00",16.0,18.0,,60.8,-470,528,51,1013.77,63.4,0
"2021-04-06 16:37:39+00",13.7,15.7,,61.6,-431,446,20,1013.82,63.9,0
"2021-04-06 16:42:39+00",15.0,17.0,,61.6,-523,426,32,1013.69,64.3,0
"2021-04-06 16:47:39+00",15.5,18.5,,61.7,-526,467,12,1013.63,64.3,0
"2021-04-06 16:52:39+00",14.9,16.9,,61.9,-482,476,29,1013.59,64.5,0
"2021-04-06 16:57:39+00",12.6,15.6,,62.2,-385,415,51,1013.64,65,0
"2021-04-06 17:02:39+00",13.8,15.8,,62.7,-299,547,39,1013.5,65.2,0
"2021-04-06 17:07:39+00",16.7,19.7,,62.1,-587,479,38,1013.43,65,0
"2021-04-06 17:12:39+00",17.8,21.8,,62.6,-508,619,53,1013.37,64.8,0
"2021-04-06 17:17:39+00",21.5,25.5,,62.4,-768,611,42,1013.3,64.7,0
"2021-04-06 17:22:39+00",14.2,17.2,,62.5,-445,444,40,1013.45,64.7,0
"2021-04-06 17:27:39+00",17.3,20.3,,62.6,-650,462,40,1013.3,65,0
"2021-04-06 17:32:39+00",15.4,18.4,,62.9,-270,618,24,1013.24,65,0
"2021-04-06 17:37:39+00",15.3,19.3,,63.5,-299,640,19,1013.17,65.7,0
"2021-04-06 17:42:39+00",17.8,21.8,,63.6,-526,614,31,1012.93,65.8,0
"2021-04-06 17:47:39+00",13.4,16.4,,63.6,-175,545,-6,1013.02,66,0
"2021-04-06 17:52:39+00",12.1,14.1,,63.6,-419,344,16,1012.86,66.6,0
"2021-04-06 17:57:39+00",16.2,21.2,,64.2,-70,734,18,1012.86,67,0
"2021-04-06 18:02:39+00",11.9,15.9,,64.3,-285,412,22,1012.69,67.8,0
"2021-04-06 18:07:39+00",11.9,12.9,,64.4,-411,336,37,1012.66,67.8,0
"2021-04-06 18:12:39+00",14.9,19.9,,64.3,-216,658,21,1012.63,67.5,0
"2021-04-06 18:17:39+00",11.8,13.8,,65,-330,419,41,1012.59,68.1,0
"2021-04-06 18:22:39+00",15.8,23.8,,65,-275,643,20,1012.56,68,0
"2021-04-06 18:27:39+00",12.0,15.0,,64.9,24,518,6,1012.5,68.3,0
"2021-04-06 18:32:39+00",9.1,11.1,,65,-314,247,10,1012.51,68.5,0
"2021-04-06 18:37:39+00",6.5,8.5,,65.1,75,234,43,1012.58,68.6,0
"2021-04-06 18:42:39+00",4.0,6.0,,62.7,135,-94,-13,1012.47,67.2,0
"2021-04-06 18:47:39+00",3.9,7.9,,62.2,12,124,37,1012.49,65,0
"2021-04-06 18:52:39+00",8.1,10.1,,61.4,223,-257,13,1012.45,64,0
"2021-04-06 18:57:39+00",9.5,12.5,,57.3,357,-202,-28,1012.41,61.6,0
"2021-04-06 19:02:39+00",12.0,13.0,,56.5,508,-190,-20,1012.5,60.5,0
"2021-04-06 19:07:39+00",12.9,14.9,,55.9,470,-355,29,1012.49,59.9,0
"2021-04-06 19:12:39+00",13.4,14.4,,54.8,539,-276,-1,1012.61,59.1,0
"2021-04-06 19:17:39+00",11.0,12.0,,55.4,391,-292,-6,1012.55,59.4,0
"2021-04-06 19:22:39+00",7.8,8.8,,56.3,210,-264,24,1012.73,59.8,0
"2021-04-06 19:27:39+00",10.3,12.3,,56.6,292,-329,-18,1012.62,59.9,0
"2021-04-06 19:32:39+00",11.0,12.0,,56.6,260,-399,-18,1012.61,59.4,0
"2021-04-06 19:37:39+00",13.2,15.2,,54.9,237,-527,-42,1012.64,57.4,0
"2021-04-06 19:42:39+00",11.7,12.7,,53.8,189,-475,-23,1012.72,55.9,0
"2021-04-06 19:47:39+00",11.8,13.8,,53.9,148,-472,4,1012.49,55.6,0
"2021-04-06 19:52:39+00",11.3,14.3,,53.3,100,-472,1,1012.57,55,0
"2021-04-06 19:57:39+00",10.6,13.6,,52.8,112,-456,-5,1012.55,54.5,0
"2021-04-06 20:02:39+00",11.8,13.8,,52.7,79,-494,-18,1012.5,54.2,0
"2021-04-06 20:07:39+00",11.2,14.2,,52.4,84,-462,-18,1012.56,53.7,0
"2021-04-06 20:12:39+00",12.4,14.4,,52.2,153,-516,-18,1012.45,53.5,0
"2021-04-06 20:17:39+00",7.9,11.9,,52.4,24,-329,8,1012.8,53.5,0
"2021-04-06 20:22:39+00",9.0,14.0,,52.7,5,-386,8,1012.66,53.6,0
"2021-04-06 20:27:39+00",11.9,14.9,,52.5,81,-515,-12,1012.63,53.3,0
"2021-04-06 20:32:39+00",9.2,12.2,,52.6,34,-407,-20,1012.62,53.3,0
"2021-04-06 20:37:39+00",11.0,13.0,,52.7,113,-467,-3,1012.56,53.4,0
"2021-04-06 20:42:39+00",10.5,12.5,,52.9,35,-432,-5,1012.57,53.5,0
"2021-04-06 20:47:39+00",10.9,13.9,,52.9,141,-434,3,1012.47,53.7,0
"2021-04-06 20:52:39+00",9.0,11.0,,52.8,118,-355,9,1012.47,53.6,0
"2021-04-06 20:57:39+00",9.4,11.4,,52.3,114,-385,1,1012.36,53.2,0
"2021-04-06 21:02:39+00",8.2,11.2,,52.6,49,-333,-8,1012.41,53.4,0
"2021-04-06 21:07:39+00",12.3,14.3,,53.1,129,-526,-17,1012.31,53.8,0
"2021-04-06 21:12:39+00",9.0,10.0,,53.9,103,-369,-4,1012.26,54.4,0
"2021-04-06 21:17:39+00",11.0,13.0,,54.6,92,-472,-7,1012.18,55,0
"2021-04-06 21:22:39+00",11.8,13.8,,55,75,-484,-31,1012.24,55.6,0
"2021-04-06 21:27:39+00",9.9,12.9,,54.7,125,-405,16,1012.19,55.6,0
"2021-04-06 21:32:39+00",11.9,14.9,,54.1,62,-478,-2,1012.28,55.1,0
"2021-04-06 21:37:39+00",11.6,13.6,,54.7,71,-485,-14,1012.19,55.3,0
"2021-04-06 21:42:39+00",10.4,13.4,,54.8,64,-428,-20,1012.22,55.4,0
"2021-04-06 21:47:39+00",9.1,12.1,,54.6,21,-370,-20,1012.17,55.3,0
"2021-04-06 21:52:39+00",9.9,11.9,,54.7,3,-423,-25,1012.18,55.3,0
"2021-04-06 21:57:39+00",7.4,10.4,,55,-10,-296,19,1012.28,55.4,0
"2021-04-06 22:02:39+00",10.1,12.1,,55.6,-78,-425,-10,1012.26,56,0
"2021-04-06 22:07:39+00",7.4,9.4,,56,-2,-304,16,1012.23,56.5,0
"2021-04-06 22:12:39+00",7.3,10.3,,56.4,4,-313,-3,1012.32,56.8,0
"2021-04-06 22:17:39+00",10.2,12.2,,55.3,74,-443,-31,1012.31,55.9,0
"2021-04-06 22:22:39+00",9.2,13.2,,54.4,25,-376,-9,1012.43,54.9,0
"2021-04-06 22:27:39+00",8.6,11.6,,54.1,-24,-346,-6,1012.5,54.6,0
"2021-04-06 22:32:39+00",8.1,11.1,,54.3,4,-344,-4,1012.62,54.5,0
"2021-04-06 22:37:39+00",6.5,8.5,,54.4,-19,-270,1,1012.57,54.7,0
"2021-04-06 22:42:39+00",6.8,8.8,,54.3,-28,-282,5,1012.64,54.7,0
"2021-04-06 22:47:39+00",7.2,9.2,,54.2,-64,-306,-2,1012.56,54.5,0
"2021-04-06 22:52:39+00",7.9,10.9,,54.2,-39,-331,-1,1012.61,54.4,0
"2021-04-06 22:57:39+00",7.7,10.7,,54,-58,-324,-5,1012.61,54.1,0
"2021-04-06 23:02:39+00",8.2,9.2,,53.5,-124,-328,-2,1012.72,53.8,0
"2021-04-06 23:07:39+00",9.1,10.1,,53,-98,-378,-8,1012.73,53.2,0
"2021-04-06 23:12:39+00",8.6,9.6,,52.6,-108,-359,0,1012.85,52.6,0
"2021-04-06 23:17:39+00",10.7,11.7,,52.2,-134,-446,-5,1012.79,51.9,0
"2021-04-06 23:22:39+00",9.9,11.9,,52.1,-132,-398,-2,1012.91,51.5,0
"2021-04-06 23:27:39+00",8.2,10.2,,51.8,-84,-342,-11,1013,51.3,0
"2021-04-06 23:32:39+00",7.6,9.6,,51.7,-72,-326,-3,1013.06,51,0
"2021-04-06 23:37:39+00",8.3,10.3,,51.5,-93,-348,-2,1013.17,50.6,0
"2021-04-06 23:42:39+00",7.8,9.8,,51.5,-67,-320,-1,1013.17,50.5,0
"2021-04-06 23:47:39+00",7.5,8.5,,51.5,-104,-310,-6,1013.23,50.2,0
"2021-04-06 23:52:39+00",8.4,9.4,,51.9,-149,-339,-4,1013.3,50,0
"2021-04-06 23:57:39+00",7.9,8.9,,51.7,-208,-292,1,1013.44,49.8,0
